Springfield, IL

3:11 PM CST on March 01, 2017 (GMT -0600)
Capital

Weather History for KSPI - December, 2011

Change the Weather History Date:

Sunday, December 25, 2011

  Actual Average Record
Temperature  
Mean Temperature 39 °F 28 °F  
Max Temperature 48 °F 36 °F 62 °F (1982)
Min Temperature 29 °F 20 °F -14 °F (1983)
Degree Days  
Heating Degree Days 26 37  
Month to date heating degree days 689 849  
Since 1 July heating degree days 1599 1917  
Cooling Degree Days 0 0  
Month to date cooling degree days 0 0  
Year to date cooling degree days 1447 1122  
Moisture  
Dew Point 27 °F    
Average Humidity 67    
Maximum Humidity 85    
Minimum Humidity 49    
Precipitation  
Precipitation 0.00 in 0.08 in 0.60 in (1951)
Month to date precipitation 1.97 2.10  
Year to date precipitation 29.96 37.01  
Snow  
Snow 0.00 in 0.30 in 4.00 in (1944)
Month to date snowfall 0.1 4.3  
Since 1 July snowfall 0.1 4.9  
Snow Depth 0.00 in    
Sea Level Pressure  
Sea Level Pressure 30.31 in    
Wind  
Wind Speed 9 mph (West)    
Max Wind Speed 21 mph    
Max Gust Speed 26 mph    
Visibility 10 miles    
Events      
T = Trace of Precipitation, MM = Missing Value Source: NWS Daily Summary

Daily Weather History Graph

Daily Weather History Graph

Search for Another Location

Airport or City:

Trip Planner

Search our weather history database for the weather conditions in past years. The results will help you decide how hot, cold, wet, or windy it might be!

Date:

Astronomy

Dec. 25, 2011 Rise Set
Actual Time 7:18 AM CST 4:39 PM CST
Civil Twilight 6:47 AM CST 5:09 PM CST
Nautical Twilight 6:13 AM CST 5:43 PM CST
Astronomical Twilight 5:40 AM CST 6:16 PM CST
Moon 7:56 AM CST (12/25) 5:59 PM CST (12/25)
Length of Visible Light 10h 22m
Length of Day
9h 21m
New Moon, 1% of the Moon is Illuminated
Dec 25
New Moon
Jan 1
First Quarter
Jan 9
Full
Jan 16
Last Quarter
Jan 23
New

Hourly Weather History & Observations

Time (CST) Temp. Windchill Dew Point Humidity Pressure Visibility Wind Dir Wind Speed Gust Speed Precip Events Conditions
12:52 AM 30.9 °F 24.3 °F 25.0 °F 79% 30.29 in 10.0 mi WSW 6.9 mph - N/A   Clear
1:52 AM 30.9 °F 25.2 °F 25.0 °F 79% 30.28 in 10.0 mi SW 5.8 mph - N/A   Clear
2:52 AM 32.0 °F 25.6 °F 25.0 °F 75% 30.27 in 10.0 mi SW 6.9 mph - N/A   Clear
3:52 AM 33.1 °F 26.9 °F 26.1 °F 75% 30.25 in 10.0 mi SW 6.9 mph - N/A   Clear
4:52 AM 32.0 °F 25.6 °F 26.1 °F 79% 30.25 in 10.0 mi WSW 6.9 mph - N/A   Clear
5:52 AM 30.9 °F 22.8 °F 26.1 °F 82% 30.25 in 10.0 mi WSW 9.2 mph - N/A   Clear
6:52 AM 32.0 °F 24.8 °F 26.1 °F 79% 30.24 in 10.0 mi West 8.1 mph - N/A   Clear
7:52 AM 32.0 °F 24.2 °F 26.1 °F 79% 30.24 in 10.0 mi WSW 9.2 mph - N/A   Clear
8:52 AM 35.1 °F 25.2 °F 28.0 °F 76% 30.26 in 10.0 mi WSW 16.1 mph - N/A   Clear
9:52 AM 37.9 °F 29.2 °F 28.9 °F 70% 30.30 in 10.0 mi West 15.0 mph - N/A   Clear
10:52 AM 41.0 °F 32.2 °F 28.9 °F 62% 30.29 in 10.0 mi West 18.4 mph - N/A   Clear
11:52 AM 45.0 °F 38.2 °F 30.9 °F 58% 30.29 in 10.0 mi WNW 15.0 mph 23.0 mph N/A   Clear
12:52 PM 46.0 °F 40.6 °F 32.0 °F 58% 30.28 in 10.0 mi WNW 11.5 mph - N/A   Clear
1:52 PM 46.9 °F - 30.9 °F 54% 30.28 in 10.0 mi NW 15.0 mph 24.2 mph N/A   Clear
2:52 PM 46.9 °F - 30.0 °F 52% 30.30 in 10.0 mi NW 15.0 mph 23.0 mph N/A   Clear
3:52 PM 46.4 °F 41.1 °F 28.4 °F 50% 30.30 in 10.0 mi NNW 11.5 mph - N/A   Clear
4:52 PM 42.1 °F 37.1 °F 28.0 °F 58% 30.34 in 10.0 mi WNW 8.1 mph - N/A   Clear
5:52 PM 39.0 °F 34.0 °F 28.0 °F 65% 30.37 in 10.0 mi WNW 6.9 mph - N/A   Clear
6:52 PM 37.0 °F 32.4 °F 27.0 °F 67% 30.38 in 10.0 mi WSW 5.8 mph - N/A   Clear
7:52 PM 33.1 °F 27.7 °F 27.0 °F 78% 30.38 in 10.0 mi West 5.8 mph - N/A   Clear
8:52 PM 33.1 °F 27.7 °F 28.0 °F 82% 30.39 in 10.0 mi WSW 5.8 mph - N/A   Clear
9:52 PM 33.1 °F 26.9 °F 27.0 °F 78% 30.38 in 10.0 mi WSW 6.9 mph - N/A   Clear
10:52 PM 32.0 °F 27.5 °F 26.1 °F 79% 30.40 in 10.0 mi West 4.6 mph - N/A   Clear
11:52 PM 28.9 °F - 24.1 °F 82% 30.38 in 10.0 mi Calm Calm - N/A   Clear